HULIANWANG DIGUI-131

导读 | 豆包AI

HULIANWANG DIGUI-131是中国于北京时间2025年12月25日发射的低轨互联网卫星,是我国商业低轨宽带星座组网建设中的一颗卫星,该卫星名称直译即为互联网地轨-131。 作为我国低轨互联网星座部署的组成部分,该卫星旨在依托近地轨道资源,构建全球覆盖的高速互联网络,为用户提供低延迟、大容量的通信服务,支撑天地一体化信息网络建设,推动卫星互联网产业发展。

基本信息
目录编号:
67239
目录名称:
HULIANWANG DIGUI-131
国际标识:
2025-311D
轨道中心:
EARTH
卫星名称:
HULIANWANG DIGUI-131
卫星全名:
HULIANWANG DIGUI-131
卫星状态:
在轨 (已飞行151 天)
发射日期:
2025-12-25 UTC
国别 :
中国 (CN)
星等 :
--
轨道信息
数据来源 国际轨道数据
星历时间: 2026-05-24T05:29:26+0800
1天前
查看轨道信息
半长轴: 7527.458km
偏心率: 0.0001024
轨道倾角: 50.004°
近地点辐角 243.854°
升交点赤经 203.199°
平近点角 116.223°
近地点: 1148.55km
远地点: 1150.092km
周期: 108.326分钟
每日圈数: 13.293222
详细信息
使用方式:
暂无
2D轨道图
3D轨道图
轨道高度分析图
轨道倾角分析图
轨道综合分析图
查看轨道综合分析图